Location: Newark
(46.7000°N, 60.6000°W)
Time: 00:29:05
(UTC+00:00)

Transit 2A Rocket - Pass Details

Date: 27 October 2020
Orbit: 588 x 915 km, 66.7° (Epoch: 24 November)

Event Time Altitude Azimuth Distance (km) Brightness Sun altitude
Rises 23:29:02 0° 318° (NW) 3,271 9.0 -27.1°
Reaches altitude 10° 23:31:51 10° 306° (NW) 2,278 8.2 -27.6°
Maximum altitude 23:36:05 26° 251° (WSW) 1,375 6.8 -28.3°
Enters shadow 23:39:11 14° 202° (SSW) 1,845 7.1 -28.8°
